| time (UTC) | temp C | wind direction | speed KPH | gust KPH | rain 1hr cm | rain 24hr cm | rain mn cm | humidity % | barometer mb |
| 20260905133004 | 21 | 57 | 0.0 | 0.0 | 0.00 | 0.25 | 0.25 | 93 | 1011.6 |
| 20260905131504 | 20 | 57 | 0.0 | 0.0 | 0.00 | 0.25 | 0.25 | 93 | 1012.1 |
| 20260905130004 | 20 | 57 | 0.0 | 0.0 | 0.00 | 0.25 | 0.25 | 93 | 1012.5 |
| 20260905124504 | 20 | 57 | 0.0 | 0.0 | 0.00 | 0.25 | 0.25 | 94 | 1012.7 |
| 20260905121503 | 20 | 57 | 0.0 | 0.0 | 0.00 | 0.25 | 0.25 | 93 | 1012.9 |
| 20260905120004 | 20 | 57 | 0.0 | 0.0 | 0.00 | 0.25 | 0.25 | 93 | 1012.6 |
| 20260905114504 | 20 | 57 | 0.0 | 0.0 | 0.00 | 0.25 | 0.25 | 93 | 1012.6 |
| 20260905113004 | 20 | 59 | 0.0 | 0.0 | 0.00 | 0.25 | 0.25 | 93 | 1012.8 |
| 20260905111504 | 20 | 59 | 0.0 | 0.0 | 0.20 | 0.25 | 0.25 | 92 | 1012.9 |
| 20260905110004 | 20 | 59 | 0.0 | 0.0 | 0.23 | 0.25 | 0.25 | 92 | 1013.1 |
| 20260905104504 | 20 | 59 | 0.0 | 1.6 | 0.23 | 0.25 | 0.25 | 91 | 1013.2 |
| 20260905103004 | 20 | 115 | 0.0 | 4.8 | 0.25 | 0.25 | 0.25 | 90 | 1013.3 |
| 20260905101504 | 20 | 44 | 3.2 | 12.9 | 0.05 | 0.05 | 0.05 | 88 | 1014.0 |
| 20260905093004 | 22 | 55 | 3.2 | 4.8 | 0.00 | 0.00 | 0.00 | 93 | 1012.8 |
| 20260905091504 | 22 | 79 | 0.0 | 0.0 | 0.00 | 0.00 | 0.00 | 92 | 1011.2 |
| 20260905090004 | 22 | 79 | 0.0 | 0.0 | 0.00 | 0.00 | 0.00 | 92 | 1010.8 |
| 20260905084504 | 22 | 79 | 0.0 | 0.0 | 0.00 | 0.00 | 0.00 | 93 | 1010.4 |
| 20260905081504 | 22 | 79 | 0.0 | 0.0 | 0.00 | 0.00 | 0.00 | 93 | 1010.8 |
| 20260905080004 | 22 | 79 | 0.0 | 0.0 | 0.00 | 0.00 | 0.00 | 93 | 1010.8 |
| 20260905074504 | 22 | 79 | 0.0 | 0.0 | 0.00 | 0.00 | 0.00 | 93 | 1010.7 |
| 20260905073004 | 21 | 79 | 0.0 | 0.0 | 0.00 | 0.00 | 0.00 | 93 | 1010.6 |
| 20260905064503 | 22 | 79 | 0.0 | 0.0 | 0.00 | 0.00 | 0.00 | 93 | 1010.5 |
| 20260905063004 | 22 | 79 | 0.0 | 0.0 | 0.00 | 0.00 | 0.00 | 93 | 1010.9 |
| 20260905061503 | 22 | 79 | 0.0 | 0.0 | 0.00 | 0.00 | 0.00 | 92 | 1011.0 |
| 20260905060004 | 22 | 79 | 0.0 | 0.0 | 0.00 | 0.00 | 0.00 | 93 | 1011.3 |
| 20260905053003 | 22 | 79 | 0.0 | 0.0 | 0.00 | 0.00 | 0.00 | 93 | 1011.7 |
| 20260905051505 | 22 | 79 | 0.0 | 0.0 | 0.00 | 0.00 | 0.00 | 93 | 1011.8 |
| 20260905050004 | 22 | 79 | 0.0 | 0.0 | 0.00 | 0.00 | 0.00 | 92 | 1011.9 |
| 20260905044504 | 22 | 79 | 0.0 | 0.0 | 0.00 | 0.00 | 0.00 | 92 | 1012.0 |
| 20260905043004 | 22 | 79 | 0.0 | 0.0 | 0.00 | 0.00 | 0.00 | 92 | 1012.0 |
| 20260905041504 | 22 | 79 | 0.0 | 0.0 | 0.00 | 0.00 | 0.00 | 92 | 1012.0 |
| 20260905040004 | 22 | 79 | 0.0 | 0.0 | 0.00 | 0.00 | 0.00 | 91 | 1012.3 |
| 20260905034504 | 22 | 79 | 0.0 | 0.0 | 0.00 | 0.00 | 0.00 | 91 | 1012.3 |
| 20260905031504 | 22 | 79 | 0.0 | 0.0 | 0.00 | 0.00 | 0.00 | 91 | 1012.2 |
| 20260905030004 | 22 | 79 | 0.0 | 0.0 | 0.00 | 0.00 | 0.00 | 90 | 1012.0 |
| 20260905021504 | 23 | 79 | 0.0 | 0.0 | 0.00 | 0.00 | 0.00 | 89 | 1011.9 |
| 20260905020004 | 23 | 79 | 0.0 | 0.0 | 0.00 | 0.00 | 0.00 | 89 | 1011.9 |
| 20260905014504 | 23 | 79 | 0.0 | 0.0 | 0.00 | 0.00 | 0.00 | 89 | 1011.7 |
| 20260905013004 | 23 | 79 | 0.0 | 0.0 | 0.00 | 0.00 | 0.00 | 89 | 1011.6 |
| 20260905004504 | 24 | 79 | 0.0 | 0.0 | 0.00 | 0.00 | 0.00 | 86 | 1011.1 |
| 20260905003003 | 25 | 79 | 0.0 | 0.0 | 0.00 | 0.00 | 0.00 | 85 | 1011.0 |
| 20260905001504 | 25 | 79 | 0.0 | 0.0 | 0.00 | 0.00 | 0.00 | 84 | 1010.7 |
| 20260904234504 | 25 | 79 | 0.0 | 0.0 | 0.00 | 0.00 | 0.00 | 82 | 1010.9 |
| 20260904233004 | 26 | 79 | 0.0 | 0.0 | 0.00 | 0.00 | 0.00 | 82 | 1011.0 |
| 20260904231504 | 26 | 79 | 0.0 | 0.0 | 0.00 | 0.00 | 0.00 | 82 | 1011.0 |
| 20260904230005 | 26 | 79 | 0.0 | 0.0 | 0.00 | 0.00 | 0.00 | 81 | 1011.2 |
| 20260904224504 | 26 | 79 | 0.0 | 0.0 | 0.00 | 0.00 | 0.00 | 80 | 1011.5 |
| 20260904223004 | 26 | 82 | 0.0 | 0.0 | 0.00 | 0.00 | 0.00 | 82 | 1011.7 |
| 20260904221505 | 25 | 82 | 0.0 | 1.6 | 0.00 | 0.00 | 0.00 | 83 | 1011.4 |
| 20260904214504 | 24 | 5 | 0.0 | 0.0 | 0.00 | 0.00 | 0.00 | 87 | 1011.9 |
| 20260904213004 | 24 | 5 | 0.0 | 0.0 | 0.00 | 0.00 | 0.00 | 86 | 1012.1 |
| 20260904211504 | 24 | 5 | 0.0 | 0.0 | 0.00 | 0.00 | 0.00 | 86 | 1011.9 |
| 20260904210004 | 25 | 5 | 0.0 | 0.0 | 0.00 | 0.00 | 0.00 | 84 | 1012.2 |
| 20260904204504 | 25 | 0 | 0.0 | 14.5 | 0.00 | 0.00 | 0.00 | 82 | 1012.2 |
| 20260904201504 | 30 | 52 | 11.3 | 27.4 | 0.00 | 0.00 | 0.00 | 66 | 1013.3 |
| 20260904200006 | 35 | 110 | 1.6 | 11.3 | 0.00 | 0.00 | 0.00 | 58 | 1011.7 |
| 20260904194504 | 35 | 74 | 1.6 | 8.0 | 0.00 | 0.00 | 0.00 | 61 | 1011.6 |
| 20260904193004 | 35 | 134 | 0.0 | 9.7 | 0.00 | 0.00 | 0.00 | 61 | 1011.8 |
| 20260904191503 | 35 | 124 | 0.0 | 9.7 | 0.00 | 0.00 | 0.00 | 61 | 1011.5 |
| 20260904190004 | 35 | 93 | 1.6 | 9.7 | 0.00 | 0.00 | 0.00 | 61 | 1011.7 |
| 20260904184504 | 35 | 253 | 1.6 | 12.9 | 0.00 | 0.00 | 0.00 | 61 | 1012.1 |
| 20260904180003 | 34 | 41 | 3.2 | 11.3 | 0.00 | 0.00 | 0.00 | 60 | 1012.7 |
| 20260904173004 | 34 | 219 | 1.6 | 12.9 | 0.00 | 0.00 | 0.00 | 61 | 1013.3 |
| 20260904170004 | 33 | 103 | 1.6 | 11.3 | 0.00 | 0.00 | 0.00 | 63 | 1013.4 |
| 20260904163004 | 33 | 58 | 1.6 | 9.7 | 0.00 | 0.00 | 0.00 | 64 | 1013.5 |
| 20260904161504 | 33 | 215 | 0.0 | 4.8 | 0.00 | 0.00 | 0.00 | 68 | 1013.5 |
| 20260904160004 | 32 | 198 | 1.6 | 9.7 | 0.00 | 0.00 | 0.00 | 68 | 1013.7 |
| 20260904154504 | 32 | 111 | 0.0 | 9.7 | 0.00 | 0.00 | 0.00 | 72 | 1013.7 |
| 20260904153004 | 31 | 84 | 0.0 | 4.8 | 0.00 | 0.00 | 0.00 | 73 | 1013.6 |
| 20260904151504 | 31 | 9 | 1.6 | 9.7 | 0.00 | 0.00 | 0.00 | 72 | 1013.5 |
| 20260904150004 | 30 | 50 | 0.0 | 8.0 | 0.00 | 0.00 | 0.00 | 74 | 1013.5 |
| 20260904144504 | 30 | 121 | 0.0 | 8.0 | 0.00 | 0.00 | 0.00 | 75 | 1013.5 |
| 20260904143004 | 28 | 60 | 0.0 | 0.0 | 0.00 | 0.00 | 0.00 | 79 | 1013.4 |
| 20260904141503 | 28 | 59 | 0.0 | 0.0 | 0.00 | 0.00 | 0.00 | 82 | 1013.4 |
| 20260904140004 | 27 | 59 | 0.0 | 1.6 | 0.00 | 0.00 | 0.00 | 86 | 1013.3 |
| 20260904134504 | 26 | 60 | 0.0 | 1.6 | 0.00 | 0.00 | 0.00 | 90 | 1013.6 |